CW1172 Weather Reports


time (UTC)temp
C
wind
direction
speed
KPH
gust
KPH
rain 1hr
cm
rain 24hr
cm
rain mn
cm
humidity
%
barometer
mb
20260510081558 13 360 0.0 0.0 0.00 0.00 0.00 65 1011.4
20260510080028 12 222 0.0 0.0 0.00 0.00 0.00 67 1011.8
20260510074526 12 213 0.0 0.0 0.00 0.00 0.00 67 1011.9
20260510073023 12 211 0.0 0.0 0.00 0.00 0.00 66 1012.2
20260510071532 12 254 0.0 0.0 0.00 0.00 0.00 71 1012.2
20260510070024 12 199 0.0 0.0 0.00 0.00 0.00 73 1012.5
20260510064521 12 219 0.0 0.0 0.00 0.00 0.00 73 1012.6
20260510063019 12 167 0.0 0.0 0.00 0.00 0.00 73 1012.8
20260510061517 12 169 0.0 0.0 0.00 0.00 0.00 76 1012.9
20260510054552 9 169 0.0 0.0 0.00 0.00 0.00 82 1013.3
20260510053049 8 180 0.0 0.0 0.00 0.00 0.00 84 1013.4
20260510051556 7 141 0.0 0.0 0.00 0.00 0.00 85 1013.6
20260510050002 7 116 0.0 0.0 0.00 0.00 0.00 86 1013.7
20260510044617 6 141 0.0 0.0 0.00 0.00 0.00 86 1013.8
20260510043056 6 137 0.0 0.0 0.00 0.00 0.00 86 1013.9
20260510041553 6 130 0.0 0.0 0.00 0.00 0.00 88 1014.1
20260510034549 3 148 0.0 0.0 0.00 0.00 0.00 88 1014.4
20260510033050 3 140 0.0 0.0 0.00 0.00 0.00 87 1014.5
20260510031546 3 159 0.0 0.0 0.00 0.00 0.00 87 1014.7
20260510030053 3 160 0.0 0.0 0.00 0.00 0.00 87 1014.9
20260510024544 3 157 0.0 0.0 0.00 0.00 0.00 87 1015.0
20260510021539 3 162 0.0 0.0 0.00 0.00 0.00 86 1015.5
20260510020039 3 161 0.0 0.0 0.00 0.00 0.00 86 1015.7
20260510014538 2 152 0.0 0.0 0.00 0.00 0.00 86 1015.8
20260510011542 2 155 0.0 0.0 0.00 0.00 0.00 83 1016.1
20260510010033 2 153 0.0 0.0 0.00 0.00 0.00 82 1016.4
20260510004531 2 153 0.0 0.0 0.00 0.00 0.00 81 1016.5
20260510001529 3 155 0.0 0.0 0.00 0.00 0.00 79 1017.0
20260510000028 2 148 0.0 0.0 0.00 0.00 0.00 78 1017.0
20260509234537 2 129 0.0 0.0 0.00 0.00 0.00 77 1017.1
20260509231526 3 123 0.0 0.0 0.00 0.00 0.00 73 1017.4
20260509230022 3 125 0.0 0.0 0.00 0.00 0.00 72 1017.6
20260509224520 3 125 0.0 0.0 0.00 0.00 0.00 72 1017.7
20260509221516 4 128 0.0 0.0 0.00 0.00 0.00 71 1017.7
20260509220023 4 128 0.0 0.0 0.00 0.00 0.00 70 1017.8
20260509214512 5 126 0.0 0.0 0.00 0.00 0.00 70 1018.0
20260509211513 5 116 0.0 0.0 0.00 0.00 0.00 69 1018.2
20260509210011 6 360 0.0 0.0 0.00 0.00 0.00 67 1018.5
20260509204510 6 301 0.0 0.0 0.00 0.00 0.00 66 1018.6
20260509201513 7 360 0.0 0.0 0.00 0.00 0.00 63 1018.7
20260509200011 8 300 0.0 0.0 0.00 0.00 0.00 61 1018.6
20260509194513 9 300 0.0 0.0 0.00 0.00 0.00 57 1018.7
20260509191513 11 360 0.0 0.0 0.00 0.00 0.00 50 1018.8
20260509190014 11 360 0.0 0.0 0.00 0.00 0.00 46 1018.8
20260509184507 11 301 0.0 0.0 0.00 0.00 0.00 44 1018.9
20260509181506 13 300 0.0 0.0 0.00 0.00 0.00 44 1018.9
20260509180008 13 281 0.0 0.0 0.00 0.00 0.00 42 1018.9
20260509174505 13 309 0.0 0.0 0.00 0.00 0.00 42 1018.9
20260509171505 16 259 0.0 0.0 0.00 0.00 0.00 38 1019.2
20260509170009 16 360 0.0 0.0 0.00 0.00 0.00 35 1019.1
20260509164503 16 360 0.0 0.0 0.00 0.00 0.00 36 1019.2
20260509161502 16 286 0.0 0.0 0.00 0.00 0.00 34 1019.5
20260509160001 17 360 0.0 0.0 0.00 0.00 0.00 34 1019.5
20260509154614 17 312 0.0 0.0 0.00 0.00 0.00 34 1019.7
20260509151558 16 253 0.0 0.0 0.00 0.00 0.00 39 1020.1
20260509150057 16 304 0.0 0.0 0.00 0.00 0.00 36 1020.2
20260509144600 16 360 0.0 0.0 0.00 0.00 0.00 38 1020.3
20260509141554 16 281 0.0 0.0 0.00 0.00 0.00 39 1020.5
20260509134552 16 360 0.0 0.0 0.00 0.00 0.00 38 1020.7
20260509131551 17 232 0.0 0.0 0.00 0.00 0.00 38 1021.1
20260509130051 17 285 0.0 0.0 0.00 0.00 0.00 38 1021.2
20260509124550 17 307 0.0 0.0 0.00 0.00 0.00 38 1021.3
20260509121547 18 269 0.0 0.0 0.00 0.00 0.00 40 1021.6
20260509120058 17 360 0.0 0.0 0.00 0.00 0.00 41 1021.7
20260509114543 17 319 0.0 0.0 0.00 0.00 0.00 41 1021.9
20260509111544 17 324 0.0 0.0 0.00 0.00 0.00 40 1022.1
20260509110045 17 315 0.0 0.0 0.00 0.00 0.00 40 1022.4
20260509104540 17 246 0.0 0.0 0.00 0.00 0.00 39 1022.7
20260509101550 16 284 0.0 0.0 0.00 0.00 0.00 41 1022.9
20260509100043 16 360 0.0 0.0 0.00 0.00 0.00 42 1023.1
20260509094536 17 245 0.0 0.0 0.00 0.00 0.00 41 1023.1
20260509091536 16 311 0.0 0.0 0.00 0.00 0.00 44 1023.3
20260509090041 16 286 0.0 0.0 0.00 0.00 0.00 47 1023.2
20260509084538 16 42 0.0 0.0 0.00 0.00 0.00 50 1023.2